x

West Erie - 16 Nm Nw Of Lorain, Oh (45005) Weather Station

9:20pm - Wed 24th Aug 2016 All times are CDT. -5 hours from GMT.

  • Wind
    20mph, 25mph gusts
  • Sea Temp 77°f
  • Air Temp 79°f
  • Sea Pressure 1014.8mb
  • West Erie - 16 Nm Nw Of Lorain, Oh
  • West Erie - 16 Nm Nw Of Lorain, Oh

More Historic Weather Station data

Upgrade to MSW Pro to gain access to the past 30 days of data for over 8000 Wavebouys and Weather Stations around the globe.

Join Pro

Comparision Forecast

View Surf forecast
   
Wed 08/24 9:20pm  -   -   -  20 25 mph 1014.8mb 77f 79f
9:10pm  -   -   -  18 22 mph 1015mb 77f 79f
9:00pm  -   -   -  20 22 mph 1015.2mb 77f 79f
8:50pm 2ft 4s 3s 20 25 mph 1015.2mb 77f 79f
8:40pm  -   -   -  18 22 mph 1015.3mb 77f 79f
8:30pm  -   -   -  18 20 mph 1015.4mb 77f 79f
8:20pm  -   -   -  18 20 mph 1015.5mb 77f 79f
8:10pm  -   -   -  18 22 mph 1015.6mb 77f 79f
8:00pm  -   -   -  18 22 mph 1015.6mb 77f 79f
7:50pm 2ft 3s 3s 18 22 mph 1015.6mb 77f 79f
7:40pm  -   -   -  18 22 mph 1015.6mb 77f 80f
7:30pm  -   -   -  18 25 mph 1015.7mb 77f 80f
7:20pm  -   -   -  18 22 mph 1015.8mb 77f 80f
7:10pm  -   -   -  18 22 mph 1015.9mb 77f 80f
7:00pm  -   -   -  16 18 mph 1015.8mb 77f 80f
6:50pm 2ft 4s 3s 16 20 mph 1015.8mb 77f 80f
6:40pm  -   -   -  16 20 mph 1015.7mb 77f 80f
6:30pm  -   -   -  16 18 mph 1015.7mb 77f 80f
6:20pm  -   -   -  18 20 mph 1015.9mb 77f 80f
6:10pm  -   -   -  18 20 mph 1015.9mb 77f 80f
6:00pm  -   -   -  18 20 mph 1016mb 77f 80f
5:50pm 2ft 3s 3s 16 18 mph 1016mb 77f 80f
5:40pm  -   -   -  16 20 mph 1015.9mb 77f 80f
5:30pm  -   -   -  18 22 mph 1016.3mb 77f 80f
5:20pm  -   -   -  16 20 mph 1016.2mb 77f 80f
5:10pm  -   -   -  16 20 mph 1016.3mb 77f 80f
5:00pm  -   -   -  16 20 mph 1016.5mb 77f 80f
4:50pm 1.6ft 3s 3s 16 18 mph 1016.7mb 77f 80f
4:40pm  -   -   -  13 18 mph 1016.7mb 77f 80f
4:30pm  -   -   -  16 18 mph 1016.8mb 77f 80f
4:20pm  -   -   -  16 20 mph 1016.9mb 77f 80f
4:10pm  -   -   -  16 20 mph 1017mb 77f 80f
4:00pm  -   -   -  16 18 mph 1017mb 77f 80f
3:50pm 1.6ft 3s 3s 13 18 mph 1016.9mb 77f 80f
3:40pm  -   -   -  13 18 mph 1016.8mb 77f 80f
3:30pm  -   -   -  13 16 mph 1016.8mb 77f 80f
3:20pm  -   -   -  13 18 mph 1017mb 77f 80f
3:10pm  -   -   -  16 20 mph 1017mb 77f 80f
3:00pm  -   -   -  16 18 mph 1017.1mb 77f 80f
2:50pm 1.6ft 3s 3s 16 18 mph 1017.3mb 77f 79f
2:40pm  -   -   -  13 18 mph 1017.5mb 77f 79f
2:30pm  -   -   -  13 18 mph 1017.9mb 77f 79f
2:20pm  -   -   -  18 20 mph 1018.1mb 77f 80f
2:10pm  -   -   -  18 22 mph 1018.2mb 77f 79f
2:00pm  -   -   -  16 20 mph 1018.4mb 77f 79f
1:50pm 1.3ft 3s 3s 16 18 mph 1018.6mb 77f 79f
1:40pm  -   -   -  16 20 mph 1018.8mb 77f 79f
1:30pm  -   -   -  16 18 mph 1018.9mb 77f 79f
1:20pm  -   -   -  16 18 mph 1018.9mb 77f 79f
1:10pm  -   -   -  13 18 mph 1019mb 77f 79f
1:00pm  -   -   -  16 18 mph 1019.2mb 77f 79f
12:50pm 1.3ft 3s 3s 16 18 mph 1019.4mb 77f 79f
12:40pm 1.3ft  -  3s 13 18 mph 1019.5mb 77f 78f
12:30pm  -   -   -  13 16 mph 1019.4mb 77f 78f
12:20pm  -   -   -  16 18 mph 1019.6mb 77f 78f
12:10pm  -   -   -  13 18 mph 1019.7mb 77f 78f
12:00pm  -   -   -  13 16 mph 1019.9mb 77f 78f
11:50am 1.6ft 3s 3s 13 18 mph 1020.1mb 77f 78f
11:40am 1.6ft  -  3s 13 16 mph 1020.4mb 77f 77f
11:30am  -   -   -  16 20 mph 1020.5mb 77f 77f
11:20am  -   -   -  16 20 mph 1020.5mb 77f 77f
11:10am  -   -   -  16 20 mph 1020.6mb 77f 76f
11:00am  -   -   -  16 20 mph 1020.6mb 77f 76f
10:50am 1.6ft 3s 3s 16 20 mph 1020.6mb 77f 76f
10:40am  -   -   -  16 20 mph 1020.8mb 77f 76f
10:30am  -   -   -  16 20 mph 1020.9mb 77f 76f
10:20am  -   -   -  16 20 mph 1020.9mb 77f 75f
10:10am  -   -   -  18 20 mph 1020.9mb 77f 75f
10:00am  -   -   -  18 22 mph 1020.9mb 77f 74f
9:50am 2ft 3s 3s 18 22 mph 1021mb 77f 74f
9:40am  -   -   -  18 22 mph 1021mb 77f 74f
9:30am  -   -   -  18 22 mph 1021mb 77f 74f
9:20am  -   -   -  18 22 mph 1021mb 77f 74f
9:10am  -   -   -  18 20 mph 1021mb 77f 74f
9:00am  -   -   -  18 22 mph 1021mb 77f 74f
8:50am 1.6ft 3s 3s 18 22 mph 1021.2mb 77f 74f
8:40am 1.6ft  -  3s 18 22 mph 1021.3mb 77f 74f
8:30am  -   -   -  18 20 mph 1021.4mb 77f 74f
8:20am  -   -   -  18 20 mph 1021.5mb 77f 74f
8:10am  -   -   -  16 20 mph 1021.7mb 77f 73f
8:00am  -   -   -  16 20 mph 1022mb 77f 73f
7:50am 1.6ft 3s 3s 16 18 mph 1022.2mb 77f 73f
7:40am  -   -   -  16 18 mph 1022.3mb 77f 73f
7:30am  -   -   -  16 18 mph 1022.4mb 77f 73f
7:20am  -   -   -  13 18 mph 1022.3mb 77f 73f
7:10am  -   -   -  13 16 mph 1022.2mb 77f 73f
7:00am  -   -   -  13 16 mph 1022.2mb 77f 73f
6:50am 1.3ft 3s 3s 11 13 mph 1022.3mb 77f 73f
6:40am  -   -   -  11 13 mph 1022.4mb 77f 73f
6:30am  -   -   -  11 13 mph 1022.6mb 77f 73f
6:20am  -   -   -  11 13 mph 1022.4mb 77f 73f
6:10am  -   -   -  11 13 mph 1022.6mb 77f 73f
6:00am  -   -   -  11 16 mph 1022.6mb 77f 73f
5:50am 1.3ft 3s 3s 11 16 mph 1022.6mb 77f 73f
5:40am  -   -   -  13 16 mph 1022.5mb 77f 73f
5:30am  -   -   -  13 16 mph 1022.3mb 77f 73f
5:20am  -   -   -  11 16 mph 1022.4mb 77f 73f
5:10am  -   -   -  13 16 mph 1022.3mb 77f 73f
5:00am  -   -   -  13 16 mph 1022.3mb 77f 73f
4:50am 1.3ft 3s 3s 13 16 mph 1022.1mb - 73f
4:40am  -   -   -  13 16 mph 1022.1mb 77f 74f
4:30am  -   -   -  16 18 mph 1022mb 77f 74f
4:20am  -   -   -  13 16 mph 1021.9mb 77f 74f
4:10am  -   -   -  13 16 mph 1022mb 77f 74f
4:00am  -   -   -  13 16 mph 1022.1mb 77f 74f
3:50am 1ft 2s 3s 13 16 mph 1022mb 77f 74f
3:40am  -   -   -  13 16 mph 1022mb 77f 74f
3:30am  -   -   -  13 16 mph 1022mb 77f 74f
3:20am  -   -   -  13 16 mph 1022.1mb 77f 74f
3:10am  -   -   -  13 16 mph 1022.1mb 77f 74f
3:00am  -   -   -  11 16 mph 1022.1mb 77f 74f
2:50am 0.7ft  -  2s 11 13 mph 1022.2mb 77f 74f
2:40am 0.7ft  -  2s 11 13 mph 1022.3mb 77f 74f
2:30am  -   -   -  11 13 mph 1022.3mb 77f 74f
2:20am  -   -   -  11 13 mph 1022.4mb 77f 74f
2:10am  -   -   -  9 11 mph 1022.3mb 77f 75f
2:00am  -   -   -  11 13 mph 1022.3mb 77f 75f
1:50am 0.7ft  -  2s 11 13 mph 1022.3mb 77f 75f
1:40am  -   -   -  11 13 mph 1022.3mb 77f 75f
1:30am  -   -   -  11 13 mph 1022.4mb 77f 74f
1:20am  -   -   -  11 13 mph 1022.3mb 77f 74f
1:10am  -   -   -  11 13 mph 1022.4mb 77f 74f
1:00am  -   -   -  11 13 mph 1022.3mb 77f 75f
12:50am 0.7ft  -  2s 11 13 mph 1022.5mb - 75f
12:40am 0.7ft  -   -   -  mph - 78f -
12:30am  -   -   -  11 13 mph 1022.6mb 78f 75f
12:20am  -   -   -  11 13 mph 1022.6mb 78f 75f
12:10am  -   -   -  11 13 mph 1022.7mb 78f 75f
12:00am  -   -   -  11 13 mph 1022.8mb 78f 76f
Tue 08/23 11:50pm 0.7ft  -  2s 9 11 mph 1022.8mb 78f 76f
11:40pm  -   -   -  9 11 mph 1022.8mb 78f 76f
11:30pm  -   -   -  9
mph
1022.9mb 78f 76f
11:20pm  -   -   -  9
mph
1022.9mb 78f 76f
11:10pm  -   -   -  9
mph
1023mb 78f 77f
11:00pm  -   -   -  7 9 mph 1023mb 78f 77f
10:50pm 0.7ft  -  3s 9
mph
1023.1mb 78f 77f
10:40pm 0.7ft  -  3s 9 11 mph 1023.2mb 78f 77f
10:30pm  -   -   -  9 11 mph 1023.3mb 78f 77f
10:20pm  -   -   -  9 11 mph 1023.3mb 78f 78f
10:10pm  -   -   -  9 11 mph 1023.4mb 78f 78f
10:00pm  -   -   -  9 11 mph 1023.4mb 78f 78f
9:50pm 0.3ft  -  3s 9
mph
1023.5mb 78f 78f
9:40pm 0.3ft  -  3s 9 11 mph 1023.5mb 78f 78f
9:30pm  -   -   -  9 11 mph 1023.6mb 78f 77f
9:20pm  -   -   -  7 9 mph 1023.6mb 78f 77f
9:10pm  -   -   -  7 9 mph 1023.7mb 78f 77f
9:00pm  -   -   -  9
mph
1023.8mb 78f 77f
8:50pm 0.3ft  -  3s 9
mph
1023.8mb 78f 77f
8:40pm  -   -   -  9
mph
1023.8mb 78f 76f
8:30pm  -   -   -  7 11 mph 1023.9mb 78f 76f
8:20pm  -   -   -  7 9 mph 1023.8mb - 76f
8:10pm  -   -   -  7 9 mph 1023.7mb 78f 76f
8:00pm  -   -   -  7 9 mph 1023.6mb 78f 76f
7:50pm 0.3ft  -  3s 7
mph
1023.5mb 78f 76f
7:40pm  -   -   -  7
mph
1023.4mb 78f 76f
7:30pm  -   -   -  4 7 mph 1023.4mb 78f 76f
7:20pm  -   -   -  4 7 mph 1023.4mb 78f 76f
7:10pm  -   -   -  4 7 mph 1023.4mb 78f 76f
7:00pm  -   -   -  4 7 mph 1023.4mb 78f 77f
6:50pm 0.3ft  -  3s 2 4 mph 1023.4mb 78f 77f
6:40pm  -   -   -  2 4 mph 1023.4mb 78f 77f
6:30pm  -   -   -  2
mph
1023.4mb 78f 77f
6:20pm  -   -   -  2 4 mph 1023.3mb 78f 77f
6:10pm  -   -   -  2 4 mph 1023.2mb 78f 78f
6:00pm  -   -   -  2
mph
1023.3mb 78f 78f
5:50pm 0.3ft  -  3s 2
mph
1023.4mb 78f 78f
5:40pm  -   -   -   -  2 mph 1023.5mb 78f 78f
5:30pm  -   -   -  2
mph
1023.6mb 78f 77f
5:20pm  -   -   -  2
mph
1023.6mb 78f 77f
5:10pm  -   -   -  2 4 mph 1023.6mb 78f 76f
5:00pm  -   -   -  2 4 mph 1023.7mb 78f 76f
4:50pm 0.3ft  -  3s 2 4 mph 1023.8mb 78f 77f
4:40pm  -   -   -  2
mph
1023.9mb 78f 77f
4:30pm  -   -   -  2
mph
1023.8mb 78f 76f
4:20pm  -   -   -  2 4 mph 1023.9mb 78f 76f
4:10pm  -   -   -  2 4 mph 1023.9mb 78f 76f
4:00pm  -   -   -  2 4 mph 1024mb 78f 76f
3:50pm 0.3ft  -  3s 2 4 mph 1024mb 78f 76f
3:40pm  -   -   -  2 4 mph 1024mb 78f 76f
3:30pm  -   -   -  2 4 mph 1024.1mb 78f 76f
3:20pm  -   -   -   -  2 mph 1024.1mb 78f 76f
3:10pm  -   -   -  2 4 mph 1024.3mb 78f 76f
3:00pm  -   -   -  2 4 mph 1024.2mb 78f 76f
2:50pm 0.3ft  -  3s  -  2 mph 1024.3mb 78f 77f
2:40pm  -   -   -   -  2 mph 1024.4mb 78f 76f
2:30pm  -   -   -  2 4 mph 1024.5mb 78f 76f
2:20pm  -   -   -  2 4 mph 1024.7mb 78f 76f
2:10pm  -   -   -  4
mph
1024.8mb 78f 76f
2:00pm  -   -   -  4
mph
1024.9mb 78f 76f
1:50pm 0.3ft  -  2s 2 4 mph 1025mb 78f 76f
1:40pm  -   -   -  2
mph
1025.1mb 78f 75f
1:30pm  -   -   -  2 4 mph 1025.2mb 78f 75f
1:20pm  -   -   -  4
mph
1025.3mb 78f 75f
1:10pm  -   -   -  4 7 mph 1025.3mb 78f 75f
1:00pm  -   -   -  4 9 mph 1025.4mb 78f 75f
12:50pm 0.7ft  -  2s 7 13 mph 1025.5mb 78f 75f
12:40pm 0.7ft  -  2s 7 9 mph 1025.6mb 78f 75f
12:30pm  -   -   -  7 9 mph 1025.7mb 78f 75f
12:20pm  -   -   -  7 9 mph 1025.7mb 78f 74f
12:10pm  -   -   -  9 11 mph 1025.7mb 78f 74f
12:00pm  -   -   -  9 11 mph 1025.7mb - 74f
11:50am 0.7ft  -  3s 9 11 mph 1025.7mb 77f 74f
11:40am  -   -   -  9 11 mph 1025.7mb 77f 74f
11:30am  -   -   -  9 11 mph 1025.7mb 77f 74f
11:20am  -   -   -  9 11 mph 1025.8mb 77f 74f
11:10am  -   -   -  11 13 mph 1025.8mb 77f 73f
11:00am  -   -   -  11 13 mph 1025.8mb 77f 73f
10:50am 1ft 3s 3s 11 13 mph 1026mb 77f 73f
10:40am  -   -   -  11 13 mph 1026mb 77f 73f
10:30am  -   -   -  11 13 mph 1026mb 77f 73f
10:20am  -   -   -  11 13 mph 1026mb 77f 73f
10:10am  -   -   -  11 13 mph 1026mb 77f 73f
10:00am  -   -   -  11 13 mph 1025.9mb 77f 73f
9:50am 1ft 3s 3s 11 13 mph 1025.8mb 77f 72f
9:40am  -   -   -  11 13 mph 1026mb 77f 72f
9:30am  -   -   -  11 13 mph 1026mb 77f 72f
9:20am  -   -   -  11 13 mph 1025.8mb 77f 72f
9:10am  -   -   -  11 13 mph 1025.8mb 77f 72f
9:00am  -   -   -  11 13 mph 1025.8mb 77f 72f
8:50am 1ft 3s 3s 11 13 mph 1025.8mb 77f 71f
8:40am  -   -   -  11 13 mph 1025.8mb 77f 71f
8:30am  -   -   -  11 13 mph 1025.7mb 77f 71f
8:20am  -   -   -  11 13 mph 1025.7mb 77f 71f
8:10am  -   -   -  11 13 mph 1025.9mb 77f 71f
8:00am  -   -   -  11 13 mph 1025.9mb 77f 71f
7:50am 1.3ft 3s 3s 11 13 mph 1025.9mb 77f 71f
7:40am  -   -   -  11 13 mph 1025.9mb 77f 71f
7:30am  -   -   -  11 13 mph 1026mb 77f 71f
7:20am  -   -   -  11 13 mph 1025.9mb 77f 71f
7:10am  -   -   -  11 13 mph 1026mb 77f 71f
7:00am  -   -   -  13 16 mph 1025.9mb 77f 71f
6:50am 1.6ft 3s 3s 13 16 mph 1025.8mb 77f 71f
6:40am  -   -   -  13 18 mph 1025.8mb 77f 71f
6:30am  -   -   -  13 16 mph 1025.7mb 77f 72f
6:20am  -   -   -  13 16 mph 1025.7mb 77f 72f
6:10am  -   -   -  13 18 mph 1025.7mb 77f 71f
6:00am  -   -   -  13 16 mph 1025.7mb 77f 71f
5:50am 1.6ft 3s 3s 13 16 mph 1025.3mb 77f 72f
5:40am  -   -   -  13 16 mph 1025.3mb 77f 71f
5:30am  -   -   -  16 18 mph 1025.2mb 77f 71f
5:20am  -   -   -  16 18 mph 1025.3mb 77f 71f
5:10am  -   -   -  16 18 mph 1025.2mb 77f 71f
5:00am  -   -   -  16 18 mph 1025.2mb 77f 71f
4:50am 1.6ft 3s 3s 13 18 mph 1025mb 77f 71f
4:40am  -   -   -  16 18 mph 1024.9mb 77f 72f
4:30am  -   -   -  16 18 mph 1024.8mb 77f 72f
4:20am  -   -   -  16 18 mph 1024.7mb 77f 72f
4:10am  -   -   -  13 18 mph 1024.7mb 77f 72f
4:00am  -   -   -  13 18 mph 1024.8mb 77f 72f
3:50am 1.3ft 3s 3s 13 18 mph 1024.8mb 77f 72f
3:40am  -   -   -  13 18 mph 1024.8mb 77f 72f
3:30am  -   -   -  13 16 mph 1024.8mb 77f 72f
3:20am  -   -   -  13 16 mph 1024.7mb 77f 72f
3:10am  -   -   -  13 16 mph 1024.6mb 77f 72f
3:00am  -   -   -  13 16 mph 1024.6mb 77f 72f
2:50am 1.3ft 3s 3s 13 16 mph 1024.5mb 77f 72f
2:40am  -   -   -  13 16 mph 1024.5mb 77f 72f
2:30am  -   -   -  13 16 mph 1024.4mb 77f 73f
2:20am  -   -   -  13 16 mph 1024.3mb 77f 72f
2:10am  -   -   -  13 18 mph 1024.3mb 77f 73f
2:00am  -   -   -  13 16 mph 1024.3mb 77f 72f
1:50am 1ft 3s 3s 13 16 mph 1024.4mb 77f 73f
1:40am  -   -   -  13 16 mph 1024.4mb 77f 73f
1:30am  -   -   -  13 16 mph 1024.4mb 77f 73f
1:20am  -   -   -  13 16 mph 1024.3mb 77f 73f
1:10am  -   -   -  13 16 mph 1024.3mb 77f 73f
1:00am  -   -   -  13 16 mph 1024.2mb 78f 73f
12:50am 0.7ft  -  2s 11 13 mph 1024mb 78f 73f
12:40am  -   -   -  11 13 mph 1024mb 78f 73f
12:30am  -   -   -  11 16 mph 1023.8mb 78f 73f
12:20am  -   -   -  11 13 mph 1023.8mb 78f 73f
12:10am  -   -   -  11 13 mph 1023.8mb 78f 73f
12:00am  -   -   -  9 11 mph 1023.7mb 78f 73f
Mon 08/22 11:50pm 0.3ft  -  3s 9 11 mph 1023.6mb 78f 73f
11:40pm  -   -   -  9 11 mph 1023.5mb 78f 73f
11:30pm  -   -   -  9 11 mph 1023.4mb 78f 73f
11:20pm  -   -   -  11 13 mph 1023.4mb 78f 73f
11:10pm  -   -   -  9 11 mph 1023.4mb 78f 73f
11:00pm  -   -   -  11 13 mph 1023.5mb 78f 73f
10:50pm 0.3ft  -  3s 9 13 mph 1023.4mb 78f 73f
10:40pm  -   -   -  7 11 mph 1023.4mb 78f 73f
10:30pm  -   -   -  7 11 mph 1023.3mb 78f 73f
10:20pm  -   -   -  9 11 mph 1023.3mb - 73f
10:10pm  -   -   -  7 11 mph 1023.3mb 78f 73f
10:00pm  -   -   -  7 11 mph 1023.3mb 78f 73f
9:50pm 0.3ft  -  3s 7 9 mph 1023.3mb 78f 73f
9:40pm  -   -   -  4 7 mph 1023.3mb 78f 73f
9:30pm  -   -   -  4 9 mph 1023.3mb 78f 73f
9:20pm  -   -   -  4 9 mph 1023.2mb 78f 73f
9:10pm  -   -   -  4 7 mph 1023.2mb 78f 73f
9:00pm  -   -   -  7 9 mph 1023.2mb 78f 73f
8:50pm 0.3ft  -  3s 7 9 mph 1023.2mb 78f 73f
8:40pm 0.3ft  -  3s 7 9 mph 1023.1mb 79f 73f
8:30pm  -   -   -  4 7 mph 1023.1mb 79f 73f
8:20pm  -   -   -  4 7 mph 1023.1mb 78f 73f
8:10pm  -   -   -  7 9 mph 1023mb 79f 73f
8:00pm  -   -   -  4 7 mph 1022.9mb 79f 73f
7:50pm 0.3ft  -  3s 4 7 mph 1022.8mb 79f 73f
7:40pm 0.3ft  -  3s 2 7 mph 1022.8mb 78f 72f
7:30pm  -   -   -  2 4 mph 1022.7mb 78f 72f
7:20pm  -   -   -  4 7 mph 1022.6mb 78f 73f
7:10pm  -   -   -  2 7 mph 1022.7mb 78f 73f
7:00pm  -   -   -  2 4 mph 1022.6mb 79f 73f
6:50pm 0.7ft  -  3s 2
mph
1022.5mb 79f 74f
6:40pm  -   -   -   -  2 mph 1022.5mb 78f 74f
6:30pm  -   -   -  2 4 mph 1022.5mb 78f 73f
6:20pm  -   -   -  2 4 mph 1022.4mb 78f 73f
6:10pm  -   -   -  2 4 mph 1022.5mb 78f 73f
6:00pm  -   -   -  2 4 mph 1022.5mb 78f 73f
5:50pm 0.3ft  -  3s 2 4 mph 1022.5mb 78f 73f
5:40pm  -   -   -  2 4 mph 1022.5mb 78f 73f
5:30pm  -   -   -  2 4 mph 1022.5mb 78f 73f
5:20pm  -   -   -  2 4 mph 1022.6mb 78f 73f
5:10pm  -   -   -  2 4 mph 1022.7mb 78f 73f
5:00pm  -   -   -  2 4 mph 1022.7mb 78f 73f
4:50pm 0.7ft  -  3s 2 4 mph 1022.7mb 78f 73f
4:40pm  -   -   -   -  2 mph 1022.7mb 79f 73f
4:30pm  -   -   -  2 4 mph 1022.7mb 79f 72f
4:20pm  -   -   -   -  4 mph 1022.7mb 78f 72f
4:10pm  -   -   -  2 4 mph 1022.7mb 79f 71f
4:00pm  -   -   -   -  2 mph 1022.7mb 79f 72f
3:50pm 0.7ft  -  3s 2 4 mph 1022.6mb 78f 72f
3:40pm  -   -   -   -  4 mph 1022.7mb 79f 72f
3:30pm  -   -   -   -  2 mph 1022.7mb 78f 72f
3:20pm  -   -   -   -  2 mph 1022.7mb 78f 72f
3:10pm  -   -   -  2 4 mph 1022.7mb 78f 71f
3:00pm  -   -   -   -  2 mph 1022.8mb 78f 71f
2:50pm 0.7ft  -  3s  -  2 mph 1022.8mb 78f 71f
2:40pm  -   -   -  2 4 mph 1022.8mb 78f 71f
2:30pm  -   -   -   -  2 mph 1022.8mb 78f 71f
2:20pm  -   -   -  2 4 mph 1022.8mb 78f 71f
2:10pm  -   -   -  2 4 mph 1022.9mb 78f 71f
2:00pm  -   -   -   -  2 mph 1023mb 78f 71f
1:50pm 0.7ft  -  3s 4 7 mph 1023mb 78f 70f
1:40pm  -   -   -  2 7 mph 1023mb 78f 70f
1:30pm  -   -   -  2 4 mph 1023.1mb 78f 70f
1:20pm  -   -   -  2 4 mph 1023.1mb 78f 70f
1:10pm  -   -   -  2 4 mph 1023.1mb 78f 70f
1:00pm  -   -   -  2 4 mph 1023.1mb 78f 70f
12:50pm 0.7ft  -  3s  -  4 mph 1023mb 78f 70f
12:40pm  -   -   -  2 4 mph 1023.1mb 78f 70f
12:30pm  -   -   -  2 4 mph 1023.1mb 78f 70f
12:20pm  -   -   -  2 7 mph 1023.1mb 78f 69f
12:10pm  -   -   -  4 7 mph 1023.1mb 78f 69f
12:00pm  -   -   -  4 7 mph 1023.1mb 78f 69f
11:50am 0.7ft  -  3s 4 7 mph 1023.1mb 78f 69f
11:40am  -   -   -  4 9 mph 1023mb - 69f
11:30am  -   -   -  4 7 mph 1023mb 78f 69f
11:20am  -   -   -  4 9 mph 1023mb 78f 69f
11:10am  -   -   -  4 7 mph 1023mb 78f 69f
11:00am  -   -   -  4 7 mph 1023mb 78f 69f
10:50am 0.7ft  -  3s 4 7 mph 1023mb 78f 69f
10:40am  -   -   -  4 7 mph 1023mb 78f 69f
10:30am  -   -   -  4 7 mph 1023mb 78f 69f
10:20am  -   -   -  4 7 mph 1022.9mb 77f 69f
10:10am  -   -   -  4 7 mph 1022.8mb 77f 69f
10:00am  -   -   -  4 7 mph 1022.6mb 77f 69f
9:50am 0.7ft  -  3s 4 9 mph 1022.5mb 77f 69f
9:40am  -   -   -  4 9 mph 1022.4mb 77f 69f
9:30am  -   -   -  4 9 mph 1022.2mb 77f 69f
9:20am  -   -   -  7 9 mph 1022.1mb 77f 69f
9:10am  -   -   -  4 9 mph 1021.9mb 77f 69f
9:00am  -   -   -  4 9 mph 1021.8mb 77f 68f
8:50am 1ft 3s 3s 4 9 mph 1021.7mb 77f 68f
8:40am  -   -   -  7 9 mph 1021.6mb 77f 68f
8:30am  -   -   -  4 7 mph 1021.6mb 77f 68f
8:20am  -   -   -  7 9 mph 1021.6mb 77f 68f
8:10am  -   -   -  7 11 mph 1021.5mb 77f 68f
8:00am  -   -   -  7 11 mph 1021.3mb 77f 68f
7:50am 1ft 3s 3s 7 11 mph 1021.3mb 77f 68f
7:40am  -   -   -  7 9 mph 1021.3mb 77f 67f
7:30am  -   -   -  7 11 mph 1021mb 77f 67f
7:20am  -   -   -  7 11 mph 1020.8mb 77f 67f
7:10am  -   -   -  7 11 mph 1020.7mb 77f 67f
7:00am  -   -   -  7 9 mph 1020.6mb 77f 67f
6:50am 1ft 4s 3s 4 9 mph 1020.5mb 77f 67f
6:40am 1ft  -  3s 7 11 mph 1020.3mb 77f 67f
6:30am  -   -   -  7 9 mph 1020.1mb 77f 67f
6:20am  -   -   -  7 9 mph 1020mb 77f 67f
6:10am  -   -   -  7 9 mph 1019.8mb 77f 67f
6:00am  -   -   -  7 11 mph 1019.8mb 77f 67f
5:50am 1ft 3s 3s 9 11 mph 1019.7mb 77f 67f
5:40am  -   -   -  9 11 mph 1019.5mb 77f 67f
5:30am  -   -   -  9 13 mph 1019.3mb 77f 67f
5:20am  -   -   -  9 11 mph 1019.2mb 77f 67f
5:10am  -   -   -  9 11 mph 1019.1mb 77f 67f
5:00am  -   -   -  9 11 mph 1019.1mb 77f 67f
4:50am 1.3ft 4s 3s 9 11 mph 1018.9mb 77f 67f
4:40am  -   -   -  11 13 mph 1018.9mb 77f 67f
4:30am  -   -   -  11 16 mph 1018.8mb 77f 67f
4:20am  -   -   -  11 16 mph 1018.6mb 77f 67f
4:10am  -   -   -  13 16 mph 1018.5mb 77f 68f
4:00am  -   -   -  13 16 mph 1018.4mb 77f 68f
3:50am 1.3ft 3s 3s 13 18 mph 1018.3mb 77f 68f
3:40am  -   -   -  13 18 mph 1018.2mb 77f 68f
3:30am  -   -   -  13 18 mph 1018.2mb 77f 68f
3:20am  -   -   -  13 18 mph 1018.1mb 77f 68f
3:10am  -   -   -  13 18 mph 1018mb 77f 69f
3:00am  -   -   -  13 16 mph 1017.9mb 77f 68f
2:50am 1.3ft 3s 3s 13 16 mph 1017.9mb 77f 68f
2:40am 1.3ft  -  3s 13 16 mph 1017.9mb 77f 68f
2:30am  -   -   -  13 18 mph 1017.8mb 77f 68f
2:20am  -   -   -  13 18 mph 1017.6mb 77f 69f
2:10am  -   -   -  13 16 mph 1017.5mb 77f 69f
2:00am  -   -   -  13 16 mph 1017.5mb 77f 69f
1:50am 1.3ft 3s 3s 13 18 mph 1017.5mb 77f 69f
1:40am  -   -   -  11 16 mph 1017.5mb 77f 69f
1:30am  -   -   -  13 16 mph 1017.5mb 77f 69f
1:20am  -   -   -  13 16 mph 1017.4mb 77f 69f
1:10am  -   -   -  13 16 mph 1017.2mb 77f 69f
1:00am  -   -   -  13 16 mph 1017.1mb 77f 69f
12:50am 2ft 3s 3s 13 16 mph 1017.1mb 77f 69f
12:40am  -   -   -  13 18 mph 1017.1mb 77f 69f
12:30am  -   -   -  16 20 mph 1017mb 77f 70f
12:20am  -   -   -  16 20 mph 1017mb 77f 70f
12:10am  -   -   -  16 20 mph 1017mb 77f 70f
12:00am  -   -   -  16 20 mph 1016.8mb 77f 70f
Sun 08/21 11:50pm 2.5ft 4s 3s 16 20 mph 1016.6mb 77f 70f
11:40pm  -   -   -  16 20 mph 1016.6mb 77f 70f
11:30pm  -   -   -  16 20 mph 1016.5mb 77f 70f
11:20pm  -   -   -  16 20 mph 1016.4mb 77f 70f
11:10pm  -   -   -  18 20 mph 1016.3mb 77f 71f
11:00pm  -   -   -  18 22 mph 1016.2mb 77f 71f
10:50pm 2.5ft 4s 4s 18 22 mph 1016.1mb 77f 71f
10:40pm  -   -   -  18 22 mph 1015.9mb 77f 71f
10:30pm  -   -   -  18 20 mph 1015.6mb 77f 72f
10:20pm  -   -   -  18 22 mph 1015.6mb 78f 72f
10:10pm  -   -   -  18 22 mph 1015.5mb 78f 72f
10:00pm  -   -   -  20 25 mph 1015.4mb 78f 72f
9:50pm 3ft 4s 4s 20 25 mph 1015.4mb 78f 72f
9:40pm  -   -   -  20 25 mph 1015.2mb 78f 72f
9:30pm  -   -   -  20 25 mph 1015mb 78f 72f
9:20pm  -   -   -  20 27 mph 1014.8mb 78f 72f
9:10pm  -   -   -  20 25 mph 1014.7mb 78f 72f
9:00pm  -   -   -  22 27 mph 1014.7mb 78f 73f
8:50pm 3.5ft 4s 4s 22 27 mph 1014.5mb 78f 73f
8:40pm  -   -   -  20 27 mph 1014.3mb 78f 73f
8:30pm  -   -   -  22 27 mph 1014.1mb 78f 72f
8:20pm  -   -   -  22 27 mph 1014mb 78f 72f
8:10pm  -   -   -  20 25 mph 1014mb 78f 72f
8:00pm  -   -   -  22 29 mph 1013.9mb 78f 72f
7:50pm 3ft 4s 4s 25 31 mph 1013.6mb 78f 72f
7:40pm  -   -   -  27 36 mph 1013.5mb 78f 73f
7:30pm  -   -   -  20 27 mph 1013.1mb 78f 75f
7:20pm  -   -   -  20 27 mph 1012.9mb 78f 75f
7:10pm  -   -   -  20 27 mph 1012.8mb 78f 75f
7:00pm  -   -   -  22 27 mph 1012.6mb 78f 75f
6:50pm 3ft 4s 4s 20 27 mph 1012.5mb 78f 75f
6:40pm  -   -   -  20 25 mph 1012.5mb 78f 75f
6:30pm  -   -   -  20 27 mph 1012.3mb 78f 75f
6:20pm  -   -   -  20 27 mph 1012.2mb 78f 75f
6:10pm  -   -   -  20 25 mph 1012.2mb 78f 75f
6:00pm  -   -   -  22 27 mph 1012mb 78f 75f
5:50pm 2.5ft 4s 3s 22 27 mph 1012mb 78f 75f
5:40pm  -   -   -  20 27 mph 1011.9mb 78f 75f
5:30pm  -   -   -  20 27 mph 1011.9mb 78f 75f
5:20pm  -   -   -  18 25 mph 1011.9mb 78f 74f
5:10pm  -   -   -  20 25 mph 1011.8mb 78f 75f
5:00pm  -   -   -  20 27 mph 1011.7mb 78f 75f
4:50pm 2.5ft 4s 3s 20 25 mph 1011.6mb 78f 75f
4:40pm  -   -   -  20 25 mph 1011.5mb 78f 76f
4:30pm  -   -   -  20 25 mph 1011.6mb 78f 75f
4:20pm  -   -   -  20 25 mph 1011.5mb 78f 75f
4:10pm  -   -   -  18 22 mph 1011.4mb 78f 75f
4:00pm  -   -   -  18 22 mph 1011.3mb 78f 75f
3:50pm 2.5ft 4s 3s 18 22 mph 1011.3mb 78f 75f
3:40pm  -   -   -  20 25 mph 1011.4mb 78f 75f
3:30pm  -   -   -  20 27 mph 1011.4mb 78f 75f
3:20pm  -   -   -  20 27 mph 1011.2mb 78f 75f
3:10pm  -   -   -  18 25 mph 1011.2mb 78f 75f
3:00pm  -   -   -  18 22 mph 1011.1mb 78f 74f
2:50pm 2.5ft 4s 3s 18 22 mph 1011.1mb 78f 74f
2:40pm  -   -   -  18 25 mph 1011.1mb 78f 74f
2:30pm  -   -   -  20 25 mph 1011.1mb 78f 74f
2:20pm  -   -   -  20 25 mph 1011.1mb 78f 74f
2:10pm  -   -   -  18 25 mph 1011.1mb 78f 74f
2:00pm  -   -   -  20 22 mph 1011.1mb 78f 74f
1:50pm 2.5ft 4s 3s 20 25 mph 1011.1mb 78f 74f
1:40pm  -   -   -  18 22 mph 1011.1mb 78f 73f
1:30pm  -   -   -  18 22 mph 1011.1mb 78f 73f
1:20pm  -   -   -  18 22 mph 1011.1mb 78f 73f
1:10pm  -   -   -  18 22 mph 1011mb 78f 73f
1:00pm  -   -   -  18 22 mph 1011mb 78f 73f
12:50pm 2ft 3s 3s 18 22 mph 1011mb 78f 73f
12:40pm 2ft  -  3s 18 22 mph 1010.9mb 78f 72f
12:30pm  -   -   -  18 20 mph 1010.9mb 78f 73f
12:20pm  -   -   -  18 22 mph 1010.9mb 78f 72f
12:10pm  -   -   -  18 22 mph 1010.9mb 78f 72f
12:00pm  -   -   -  20 25 mph 1010.9mb 78f 72f
11:50am 2.5ft 4s 3s 18 25 mph 1010.8mb 78f 72f
11:40am  -   -   -  18 22 mph 1010.6mb 78f 72f
11:30am  -   -   -  18 25 mph 1010.5mb 78f 72f
11:20am  -   -   -  18 25 mph 1010.5mb 78f 71f
11:10am  -   -   -  18 25 mph 1010.5mb 78f 71f
11:00am  -   -   -  18 25 mph 1010.4mb 78f 71f
10:50am 2.5ft 4s 3s 18 22 mph 1010.4mb 78f 71f
10:40am  -   -   -  20 22 mph 1010.3mb 78f 71f
10:30am  -   -   -  20 25 mph 1010.4mb 78f 71f
10:20am  -   -   -  18 25 mph 1010.2mb 78f 71f
10:10am  -   -   -  18 25 mph 1010.1mb 78f 71f
10:00am  -   -   -  20 25 mph 1010mb 78f 71f
9:50am 2.5ft 4s 4s 18 25 mph 1009.9mb 78f 70f
9:40am  -   -   -  20 25 mph 1009.9mb 78f 71f
9:30am  -   -   -  20 27 mph 1009.8mb 78f 71f
9:20am  -   -   -  20 25 mph 1009.6mb 78f 71f
9:10am  -   -   -  18 22 mph 1009.4mb 78f 71f
9:00am  -   -   -  18 22 mph 1009.4mb 78f 71f
8:50am 3ft 5s 4s 20 27 mph 1009.3mb 78f 71f
8:40am  -   -   -  20 27 mph 1009.2mb 78f 71f
8:30am  -   -   -  20 27 mph 1009.1mb 78f 71f
8:20am  -   -   -  22 25 mph 1009.1mb 78f 71f
8:10am  -   -   -  20 27 mph 1008.9mb 78f 71f
8:00am  -   -   -  20 25 mph 1008.8mb 78f 71f
7:50am 3ft 4s 4s 22 29 mph 1008.7mb 78f 71f
7:40am  -   -   -  25 29 mph 1008.7mb 78f 71f
7:30am  -   -   -  22 27 mph 1008.6mb 78f 72f
7:20am  -   -   -  22 27 mph 1008.5mb 78f 72f
7:10am  -   -   -  22 27 mph 1008.3mb 78f 72f
7:00am  -   -   -  22 29 mph 1008.2mb 78f 72f
6:50am 3ft 4s 4s 22 27 mph 1008mb 78f 72f
6:40am  -   -   -  22 27 mph 1007.9mb 78f 72f
6:30am  -   -   -  20 27 mph 1007.8mb 78f 72f
6:20am  -   -   -  20 25 mph 1007.7mb 78f 72f
6:10am  -   -   -  20 27 mph 1007.5mb 78f 72f
6:00am  -   -   -  20 25 mph 1007.2mb 78f 72f
5:50am 3ft 4s 4s 20 25 mph 1007.2mb 78f 72f
5:40am  -   -   -  20 27 mph 1007mb 78f 72f
5:30am  -   -   -  20 27 mph 1007mb 78f 73f
5:20am  -   -   -  20 29 mph 1006.8mb 78f 73f
5:10am  -   -   -  20 25 mph 1006.5mb 78f 73f
5:00am  -   -   -  22 27 mph 1006.4mb 78f 73f
4:50am 3.5ft 4s 4s 22 27 mph 1006.2mb 78f 73f
4:40am  -   -   -  20 25 mph 1006.1mb 78f 73f
4:30am  -   -   -  20 25 mph 1006.1mb 78f 73f
4:20am  -   -   -  22 27 mph 1006mb 78f 73f
4:10am  -   -   -  20 25 mph 1005.9mb 78f 73f
4:00am  -   -   -  22 27 mph 1005.8mb 78f 73f
3:50am 3.5ft 4s 4s 22 29 mph 1005.7mb 78f 73f
3:40am  -   -   -  25 31 mph 1005.6mb 78f 73f
3:30am  -   -   -  25 29 mph 1005.5mb 78f 74f
3:20am  -   -   -  25 31 mph 1005.5mb 78f 74f
3:10am  -   -   -  22 29 mph 1005.2mb 78f 74f